Location: Cazarilh
(42.9578°N, 0.5819°E)
Time: 04:19:08
(UTC+00:00)

STARLINK 1020 - Pass Details

Date: 11 December 2019
Orbit: 443 x 445 km, 53.0° (Epoch: 18 January)

Event Time Altitude Azimuth Distance (km) Brightness Sun altitude
Exits shadow 05:13:31 37° 166° (SSE) 658 4.2 -22.0°
Drops below altitude 10° 05:15:46 10° 143° (SE) 1,478 6.5 -21.6°
Sets 05:17:53 0° 138° (SE) 2,338 7.7 -21.2°
